• Join FlightAware (Why Join?)
  • Login
  • US Flag 
04:30PM EDT


 

Airport Tracker/Info


-or-


 

Live Flight TrackerFlight Track Log ✈ N1248M ✈ 14-Jul-2013 ✈ KBDL - KAVP

Flight Track Log - Related Links

Times and Time Zones

All times are in EDT time to prevent confusion due to time zone crossing. See the N1248M flight status page for this flight to view local times or setup timezone preferences in your user account.

Time Position Orientation Groundspeed Altitude Reporting Facility
EDT Latitude Longitude Course Direction KTS MPH feet Rate Location/Type
02:20PM 41.9436 -72.6969 289° West 77 89 700  Level Boston Center
02:21PM 41.9561 -72.7164 311° West 93 107 1,500 900 Climbing Boston Center
02:22PM 41.9747 -72.7444 312° West 89 102 2,400 840 Climbing Boston Center
02:23PM 41.9894 -72.7697 308° West 92 106 3,200 840 Climbing Boston Center
02:24PM 41.9956 -72.8033 284° West 96 110 4,100 840 Climbing Boston Center
02:25PM 42.0100 -72.8339 302° West 97 112 5,000 900 Climbing Boston Center
02:26PM 42.0479 -73.0415 289° West  Level FlightAware Approximate
02:26PM 42.0181 -72.8703 287° West 88 101 6,000  Level Boston Center
02:27PM 42.0264 -72.8983 292° West 85 98 6,800 780 Climbing Boston Center
02:28PM 42.0347 -72.9264 292° West 83 96 7,600 540 Climbing Boston Center
02:29PM 42.0428 -72.9572 289° West 85 98 8,000 180 Climbing Boston Center
02:30PM 42.0531 -73.0019 287° West 124 143 8,000  Level Boston Center
02:31PM 42.0694 -73.0525 294° West 129 148 8,000  Level Boston Center
02:32PM 42.0756 -73.0722 293° West 130 150 8,000  Level Boston Center
02:33PM 42.0900 -73.1228 291° West 130 150 8,000 -60 Level Boston Center
02:34PM 42.1000 -73.1647 288° West 130 150 7,900  Descending Boston Center
02:35PM 42.1144 -73.2153 291° West 130 150 8,000  Climbing Boston Center
02:36PM 42.1244 -73.2519 290° West 135 155 8,000  Level Boston Center
02:37PM 42.1219 -73.3050 266° West 127 146 8,000  Level Boston Center
02:38PM 42.1217 -73.3442 269° West 127 146 8,000  Level Boston Center
02:39PM 42.1169 -73.4028 264° West 133 153 8,000  Level Boston Center
02:40PM 42.1144 -73.4533 266° West 138 159 8,000  Level Boston Center
02:41PM 42.1100 -73.5036 263° West 138 159 8,000  Level Boston Center
02:42PM 42.1053 -73.5539 263° West 138 159 8,000  Level Boston Center
02:43PM 42.1028 -73.5903 265° West 138 159 8,000  Level Boston Center
02:44PM 42.1000 -73.6517 267° West 138 159 8,000  Level Boston Center
02:45PM 42.0953 -73.6964 262° West 138 159 8,000  Level Boston Center
02:46PM 42.0864 -73.7464 257° West 138 159 8,000  Level Boston Center
02:47PM 42.0714 -73.7967 248° West 138 159 8,000  Level Boston Center
02:48PM 42.0561 -73.8408 245° Southwest 138 159 8,000  Level Boston Center
02:49PM 42.0369 -73.8908 243° Southwest 143 165 8,000 -60 Level Boston Center
02:50PM 42.0217 -73.9353 245° Southwest 143 165 7,900 -60 Descending Boston Center
02:51PM 42.0042 -73.9878 246° West 143 165 7,900  Level Boston Center
02:52PM 41.9911 -74.0294 247° West 143 165 7,900  Level Boston Center
02:53PM 41.9717 -74.0819 244° Southwest 143 165 8,000  Climbing Boston Center
02:54PM 41.9564 -74.1264 245° Southwest 143 165 8,000  Level Boston Center
02:55PM 41.9411 -74.1678 244° Southwest 143 165 8,000  Level Boston Center
02:56PM 41.9236 -74.2231 247° West 143 165 8,000  Level Boston Center
02:57PM 41.9083 -74.2644 244° Southwest 143 165 8,000  Level Boston Center
02:58PM 41.8908 -74.3142 245° Southwest 143 165 8,000  Level Boston Center
02:59PM 41.8800 -74.3528 249° West 143 165 8,000  Level Boston Center
03:00PM 41.8581 -74.4081 242° Southwest 143 165 8,000  Level Boston Center
03:01PM 41.8450 -74.4439 244° Southwest 143 165 8,000  Level Boston Center
03:02PM 41.8253 -74.4989 244° Southwest 143 165 8,000  Level Boston Center
03:03PM 41.8119 -74.5431 248° West 138 159 8,000  Level Boston Center
03:04PM 41.7942 -74.5953 245° Southwest 138 159 8,000  Level Boston Center
03:06PM 41.7629 -74.6702 241° Southwest  Level FlightAware Approximate
03:13PM 41.6425 -74.9770 247° West  Level FlightAware Approximate
03:14PM 41.6281 -75.0225 247° West  Level FlightAware Approximate
03:15PM 41.6137 -75.0681 247° West  Level FlightAware Approximate
03:16PM 41.5993 -75.1136 247° West  Level FlightAware Approximate
03:17PM 41.5849 -75.1591 247° West  Level FlightAware Approximate
03:18PM 41.5705 -75.2045 247° West  Level FlightAware Approximate
03:19PM 41.5516 -75.2468 236° Southwest  Level FlightAware Approximate
03:20PM 41.5314 -75.2881 242° Southwest  Level FlightAware Approximate
03:21PM 41.5140 -75.3316 242° Southwest  Level FlightAware Approximate